DEZFS -EDXH

Flight info

Callsign DEZFS
Flight time N/A
Altitude
Route
Aircraft DA40

Departure

Time N/A
Airport -

Arrival

Time 2026-04-20 19:18
Airport Helgoland-Düne Airport (EDXH)
Time Latitude Longitude Altitude Speed Heading
2026-04-20 19:10 53.98823 7.91832 2457 ft 103 kts 356°
2026-04-20 19:11 53.99536 7.91704 2430 ft 104 kts 355°
2026-04-20 19:11 54.00246 7.91516 2386 ft 105 kts 353°
2026-04-20 19:11 54.00961 7.91334 2369 ft 104 kts 353°
2026-04-20 19:11 54.01675 7.91174 2328 ft 105 kts 355°
2026-04-20 19:12 54.02403 7.91070 2308 ft 103 kts 359°
2026-04-20 19:12 54.03105 7.90984 2303 ft 101 kts 355°
2026-04-20 19:12 54.03810 7.90823 2254 ft 102 kts 356°
2026-04-20 19:12 54.04530 7.90725 2174 ft 104 kts 358°
2026-04-20 19:13 54.05242 7.90610 2048 ft 103 kts 350°
2026-04-20 19:13 54.05935 7.90398 1954 ft 99 kts 356°
2026-04-20 19:13 54.06611 7.90306 1926 ft 98 kts
2026-04-20 19:13 54.07328 7.90043 1766 ft 113 kts 358°
2026-04-20 19:14 54.08065 7.89750 1762 ft 108 kts
2026-04-20 19:14 54.08813 7.89531 1585 ft 108 kts
2026-04-20 19:14 54.09550 7.89336 1472 ft 103 kts
2026-04-20 19:14 54.10253 7.89205 1417 ft 96 kts 10°
2026-04-20 19:15 54.10934 7.89063 1269 ft 100 kts
2026-04-20 19:15 54.11599 7.88893 1216 ft 94 kts
2026-04-20 19:15 54.12261 7.88714 1067 ft 96 kts 11°
2026-04-20 19:15 54.12917 7.88793 1071 ft 96 kts 20°
2026-04-20 19:16 54.13580 7.88896 1070 ft 98 kts 20°
2026-04-20 19:16 54.14246 7.89035 1102 ft 95 kts 20°
2026-04-20 19:16 54.14909 7.89201 1017 ft 93 kts 22°
2026-04-20 19:16 54.15499 7.89295 874 ft 82 kts 17°
2026-04-20 19:17 54.16021 7.89383 738 ft 72 kts 25°
2026-04-20 19:17 54.16466 7.89605 639 ft 58 kts 37°
2026-04-20 19:17 54.16817 7.89925 520 ft 59 kts 41°
2026-04-20 19:17 54.17187 7.90272 439 ft 65 kts 40°
2026-04-20 19:18 54.17562 7.90621 307 ft 56 kts 39°
2026-04-20 19:18 54.17887 7.90914 196 ft 51 kts 41°
2026-04-20 19:18 54.18195 7.91195 116 ft 48 kts 38°
2026-04-20 19:18 54.18503 7.91443 126 ft 48 kts 43°
2026-04-20 19:19 54.18789 7.91736 338 ft 49 kts 41°
2026-04-20 19:19 54.19159 7.91751 518 ft 74 kts 339°
2026-04-20 19:19 54.19288 7.90784 613 ft 108 kts 234°
2026-04-20 19:19 54.18744 7.89916 612 ft 109 kts 213°
2026-04-20 19:20 54.18144 7.89458 523 ft 80 kts 145°
2026-04-20 19:20 54.17986 7.90091 337 ft 71 kts 50°
2026-04-20 19:20 54.18278 7.90621 223 ft 53 kts 60°
2026-04-20 19:20 54.18485 7.91127 64 ft 53 kts 56°
2026-04-20 19:21 54.18674 7.91574 46 ft 47 kts 53°
2026-04-20 19:21 54.18921 7.91725 346 ft 45 kts
2026-04-20 19:21 54.19098 7.91070 499 ft 74 kts 270°
2026-04-20 19:21 54.18737 7.90417 605 ft 80 kts 184°
2026-04-20 19:22 54.18167 7.90087 632 ft 95 kts 184°
2026-04-20 19:22 54.17695 7.90392 582 ft 66 kts 97°
2026-04-20 19:22 54.17942 7.90971 257 ft 68 kts 34°
2026-04-20 19:22 54.18338 7.91306 83 ft 61 kts 34°
2026-04-20 19:23 54.18671 7.91597 17 ft 42 kts 27°
2026-04-20 19:23 54.18992 7.91715 110 ft 57 kts 358°
2026-04-20 19:23 54.19268 7.91114 279 ft 84 kts 264°
2026-04-20 19:23 54.18919 7.90352 360 ft 87 kts 192°
2026-04-20 19:24 54.18313 7.90152 384 ft 89 kts 147°
2026-04-20 19:24 54.17938 7.90636 346 ft 67 kts 74°
2026-04-20 19:24 54.18187 7.91145 156 ft 56 kts 32°
2026-04-20 19:24 54.18512 7.91457 27 ft 46 kts 30°
2026-04-20 19:25 54.18714 7.91642 7 ft 15 kts 36°
2026-04-20 19:25 54.18713 7.91649 6 ft 11 kts 162°
2026-04-20 19:25 54.18658 7.91547 10 ft 13 kts 244°
2026-04-20 19:25 54.18663 7.91459 12 ft 9 kts 224°
2026-04-20 19:26 54.18651 7.91422 13 ft 0 kts 65°